sat.trackr.live / text

‹ back to catalog

STARLINK-2566

NORAD 48287 · 2021-036M

PAYLOAD ACTIVE UNKNOWN

§ Identity

Operator
Country
US
Launch date
2021-04-29
Launch site
AFETR
Launch vehicle
Mass (kg)
RCS (m²)

Purposes: comms

External: N2YO · Heavens-Above · Gunter

§ Orbital elements

Epoch: 2026-09-13T00:40:28.210656Z

Period
94.01 min
Inclination
53.1592°
Eccentricity
0.0001237
Mean motion
15.31705428 rev/d
Perigee alt
469.9 km
Apogee alt
471.6 km
Semi-major
6,848.9 km
B*
5.9974e-5
RAAN
285.9840°
Arg perigee
83.2555°
Mean anomaly
276.8587°
Rev number
29,707

§ Raw data

STARLINK-25661 48287U 21036M   26256.02810429  .00001497  00000+0  59974-4 0  99962 48287  53.1592 285.9840 0001237  83.2555 276.8587 15.31705428297077

JSON: /api/v1/satellites/48287 · /tle

For live sub-satellite position, see the globe view (requires WebGL).

§ Visibility from observer

Set your observer location to see the next 7 days of passes ≥ 10°. The values pass through the URL so the page stays shareable.

No JS? Fill the form by hand. The geolocation button needs JavaScript.